Home   Weather   Pasadena   Past weeks

Flag for USA Past Weather in Pasadena, California, USA — Yesterday and Last 2 Weeks

Now
75 °F

Sunny.


Feels Like: 76 °F
Forecast: 59 / 83 °F
Wind: 15 mph from Northwest

Location: Bob Hope Airport

Current Time: Apr 25, 2017 at 5:44:59 pm

Latest Report: Apr 25, 2017 at 4:53 pm


Visibility: 10 mi

Pressure: 29.81 "Hg

Humidity: 19%

Dew Point: 30 °F

Location of PasadenaLocation

Past Weather in Pasadena — Graph

°F

Pasadena Temperature Yesterday

Maximum temperature yesterday: 71 °F (at 12:59 pm)
Minimum temperature yesterday: 57 °F (at 4:53 am)
Average temperature yesterday: 64 °F

High & Low Weather Summary for the Past Weeks

 TemperatureHumidityPressure
High92 °F (Apr 21, 2:53 pm)90% (Apr 18, 10:53 pm)30.12 "Hg (Apr 18, 10:53 pm)
Low49 °F (Apr 15, 5:53 am)8% (Apr 21, 2:53 pm)29.77 "Hg (Apr 23, 4:53 pm)
Average66 °F48%29.94 "Hg
* Reported Apr 10 3:53 pm — Apr 25 3:53 pm, Pasadena, Weather by CustomWeather, © 2017

Note: Actual official high and low records may vary slightly from our data, if they occured in-between our weather recording intervals... More about our weather records

Advertising

Pasadena Weather History for the Previous 24 Hours

Scroll right to see more
 ConditionsComfort  
Time TempWeatherWind HumidityBarometerVisibility
3:53 pm
Tue, Apr 25
75 °FSunny.14 mph19%29.82 "Hg10 mi
2:53 pm75 °FSunny.14 mph20%29.83 "Hg10 mi
2:12 pm74 °FSunny.15 mph21%29.88 "Hg10 mi
1:53 pm73 °FSunny.17 mph19%29.85 "Hg10 mi
12:53 pm73 °FSunny.14 mph18%29.86 "Hg10 mi
11:53 am72 °FSunny.16 mph23%29.88 "Hg10 mi
10:53 am70 °FSunny.14 mph25%29.87 "Hg10 mi
9:53 am65 °FSunny.13 mph36%29.88 "Hg10 mi
8:53 am64 °FSunny.8 mph40%29.88 "Hg10 mi
7:53 am62 °FSunny.15 mph44%29.87 "Hg10 mi
6:53 am61 °FSunny.14 mph44%29.85 "Hg10 mi
5:53 am60 °FClear.15 mph49%29.82 "Hg10 mi
4:53 am62 °FClear.28 mph43%29.80 "Hg10 mi
3:53 am63 °FClear.16 mph43%29.80 "Hg10 mi
2:53 am64 °FClear.16 mph40%29.81 "Hg10 mi
1:53 am64 °FClear.13 mph41%29.82 "Hg10 mi
12:53 am64 °FClear.17 mph45%29.83 "Hg10 mi
11:53 pm
Mon, Apr 24
67 °FClear.16 mph39%29.82 "Hg10 mi
10:53 pm67 °FClear.6 mph41%29.82 "Hg10 mi
10:19 pm68 °FPassing clouds.13 mph39%29.87 "Hg10 mi
9:53 pm63 °FPassing clouds.No wind58%29.85 "Hg10 mi
8:53 pm62 °FClear.5 mph60%29.83 "Hg10 mi
7:53 pm63 °FClear.7 mph58%29.82 "Hg10 mi
6:53 pm65 °FSunny.8 mph52%29.82 "Hg10 mi
5:53 pm67 °FSunny.9 mph51%29.82 "Hg10 mi
Weather by CustomWeather, © 2017

See weather overviewHow to use our weather pages